Wind_Speed
43 46 50 50 45 42 41 41 41 41 37 34 32 31 30 30 29 29 30 30 30 31 32 30 28 26 25 24 24 24 23 23 24 24 23 22 21 22 21 21 22 24 26 29 32 34 37 39 41 42 42 43 44 46 47 48 48 47 45 44 42 40 37 36 34 31 27 25 23 21 20 18 16 16 14 14 14 15 17 18 18 18 19 20 23 23 21
43 43 46 50 48 44 43 42 41 40 39 35 33 32 31 30 30 29 30 31 31 32 33 32 29 27 25 24 24 24 23 22 23 23 21 20 20 20 20 20 21 22 24 28 31 33 35 38 40 41 42 42 44 45 46 47 48 48 47 45 43 42 39 37 35 33 29 25 25 24 21 20 18 16 15 14 13 14 15 16 18 19 20 21 24 26 23
42 42 44 49 51 47 45 44 42 41 40 37 34 32 32 32 31 29 30 31 32 33 34 34 31 27 25 23 23 23 23 22 23 22 21 20 19 20 20 20 20 21 23 26 29 31 34 36 38 40 41 42 43 44 45 46 47 47 48 48 46 44 42 39 36 34 32 27 26 26 22 19 18 16 14 12 12 13 14 16 17 20 22 22 24 28 28
41 41 43 48 52 51 47 44 42 41 41 39 35 33 33 33 32 30 30 31 32 33 34 35 32 28 25 23 22 22 22 23 23 22 21 19 19 19 19 19 19 20 22 25 28 30 32 35 37 39 40 41 42 43 45 46 47 47 48 49 49 46 44 42 38 35 33 31 29 27 21 16 16 14 12 10 11 12 14 16 18 19 22 24 24 26 29
41 41 42 46 51 51 48 45 43 41 41 40 37 34 34 34 33 32 31 31 32 34 34 35 33 29 25 23 23 22 22 23 23 22 21 19 18 19 19 18 18 19 21 24 26 28 31 33 36 37 39 41 42 43 44 46 47 48 49 50 50 49 46 44 40 37 34 33 32 28 20 13 13 12 10 9 10 11 13 15 18 18 20 23 23 23 25
40 40 42 46 49 50 50 47 44 42 42 40 38 36 35 35 34 33 33 32 33 34 34 34 32 29 25 24 23 22 22 23 23 23 20 18 18 19 19 18 17 18 20 22 24 26 29 31 34 36 38 40 42 43 45 46 48 49 50 51 52 52 49 46 43 40 35 32 32 29 20 11 10 10 9 9 10 11 12 15 17 18 19 21 22 22 23
39 40 41 44 47 51 51 49 45 43 43 42 40 38 36 35 35 34 34 33 33 34 35 33 31 28 26 24 24 23 22 22 23 22 19 18 18 18 19 18 17 18 20 21 22 25 27 29 32 35 37 39 42 43 45 46 48 49 51 52 53 53 52 49 45 42 38 33 31 28 21 12 10 10 10 10 10 10 12 14 16 18 18 19 21 23 23
37 40 41 43 47 51 52 49 45 43 43 42 40 38 36 34 34 35 35 34 34 35 35 33 31 29 26 25 25 24 22 22 23 22 19 17 18 18 18 19 18 18 20 20 22 25 26 28 31 33 36 39 41 43 44 46 48 49 51 53 54 54 54 52 47 42 39 35 31 28 22 14 12 12 12 11 11 11 12 14 16 17 18 18 19 22 24
36 39 40 42 46 49 50 48 44 43 43 41 40 39 38 35 34 36 36 35 34 35 34 32 30 29 27 26 25 24 23 22 23 23 19 17 18 18 18 19 18 18 20 20 21 24 26 27 30 32 35 38 40 43 44 46 48 50 52 54 55 56 56 54 49 43 40 36 32 28 24 18 14 14 14 14 13 12 13 15 17 17 17 18 18 20 22
36 38 40 42 46 48 48 46 43 42 42 41 40 40 39 37 35 36 36 35 35 35 33 31 30 29 27 27 27 25 24 22 23 23 20 17 18 19 19 18 18 19 20 19 21 24 25 26 29 31 34 37 40 42 44 46 48 50 52 53 55 56 56 55 51 45 40 36 32 29 25 21 17 16 16 16 16 15 15 17 18 19 18 18 18 19 20
35 37 39 42 46 48 48 46 43 43 42 40 39 40 40 38 35 35 36 36 35 35 33 31 30 29 28 28 28 26 24 23 23 23 21 18 18 19 20 18 17 18 19 19 21 23 25 26 27 30 33 36 39 42 44 46 48 50 51 53 55 56 57 56 52 46 40 35 32 29 27 23 20 17 16 17 18 18 18 19 20 20 20 19 18 18 18
35 37 39 42 47 49 49 46 44 43 42 40 38 39 40 39 36 35 36 36 35 35 33 31 31 30 29 28 28 28 26 24 24 24 22 19 18 19 20 19 18 18 19 20 21 23 24 26 27 29 32 34 38 41 43 45 47 49 51 53 55 56 57 56 53 47 41 35 31 29 28 26 23 20 18 16 17 19 20 22 22 22 21 21 19 18 18
35 37 39 42 47 50 50 47 45 43 42 40 39 39 40 39 37 35 36 36 36 34 32 31 31 31 30 28 28 29 27 25 25 25 24 20 18 19 20 19 19 19 19 20 21 23 24 25 27 28 30 33 36 40 42 44 47 49 51 53 55 56 57 57 54 48 41 36 31 27 26 26 26 24 22 19 18 18 19 21 22 23 23 22 22 21 20
35 36 39 41 47 51 51 49 46 44 43 41 40 39 39 39 38 36 36 37 36 34 32 31 32 32 31 28 27 29 29 26 26 26 24 22 19 19 20 20 19 20 20 20 22 23 24 25 26 28 30 31 34 38 41 43 46 48 50 53 55 56 57 57 55 49 42 37 31 26 25 25 25 25 24 22 21 21 21 22 22 23 24 24 23 22 22
36 36 38 41 47 52 52 49 47 45 44 42 41 40 40 39 39 38 37 37 36 34 32 31 32 32 31 28 26 28 30 27 26 26 25 22 20 20 20 20 20 20 20 21 22 24 24 25 26 27 29 30 33 36 39 41 45 47 50 52 54 56 57 57 55 49 43 37 32 26 23 24 25 24 23 23 22 21 21 22 23 23 23 23 23 22 22
36 36 39 42 47 52 52 50 47 46 44 43 42 41 40 39 40 40 38 37 36 33 32 32 32 32 32 29 26 28 30 28 27 27 26 23 21 20 20 20 20 20 20 21 22 24 24 25 26 27 28 30 32 34 37 40 43 46 49 51 54 56 57 57 55 50 44 37 32 27 23 22 24 25 24 24 23 22 20 20 20 21 21 21 21 20 20
37 36 39 42 47 51 52 50 47 46 45 44 44 42 40 39 40 40 38 36 35 34 32 32 32 33 32 30 26 27 30 29 28 28 27 25 23 21 21 20 20 20 20 20 22 24 24 25 26 27 28 30 32 34 37 39 41 45 47 50 53 55 57 57 55 51 45 37 30 26 23 23 25 26 27 26 25 24 22 20 19 19 19 18 17 17 18
37 36 38 42 47 51 53 50 47 46 46 45 45 43 40 38 39 39 37 35 35 34 33 33 32 32 31 30 27 27 31 31 29 28 28 27 24 22 21 21 22 21 20 20 22 23 25 25 26 27 29 31 33 35 37 39 41 44 47 49 52 54 56 57 55 51 45 38 30 25 23 24 26 27 27 28 27 26 25 23 21 21 19 17 14 14 15
36 36 38 42 47 52 53 51 48 48 47 46 46 43 39 38 40 39 37 36 35 35 34 33 32 31 30 30 28 28 31 31 30 29 28 28 26 24 22 22 23 23 21 20 21 23 25 26 27 27 29 31 33 35 37 39 41 44 47 50 52 55 57 58 56 53 47 40 32 26 24 25 27 27 28 28 29 28 27 25 24 24 22 18 15 13 13
36 35 38 43 48 51 53 52 50 49 48 47 45 42 39 39 39 37 36 36 36 36 35 34 32 31 30 30 28 28 31 32 30 29 29 28 27 25 23 23 24 24 22 21 21 23 24 26 27 27 29 31 32 34 36 39 41 43 46 49 52 55 57 59 58 55 50 43 35 29 27 28 29 30 30 30 30 29 29 28 27 26 23 20 18 16 15
36 35 37 43 49 52 54 53 51 50 48 46 44 42 40 40 38 36 36 37 36 36 35 34 33 31 31 30 29 28 32 33 31 30 29 29 28 26 24 24 24 24 24 22 22 23 24 25 26 27 29 31 32 34 35 37 40 42 45 48 51 53 56 58 59 58 53 46 39 33 30 31 33 33 33 32 31 30 30 29 28 27 25 23 21 20 19
36 35 38 44 49 53 54 53 50 49 47 46 44 43 42 41 39 37 37 38 37 36 35 35 33 31 31 31 29 28 31 33 32 30 30 30 29 27 25 24 24 24 24 23 22 23 24 25 26 27 29 31 32 33 34 36 38 41 43 46 49 52 54 56 58 58 54 48 42 36 33 32 33 35 34 33 32 31 30 30 30 28 27 26 24 23 22
37 36 38 44 50 53 54 53 50 48 47 46 45 44 43 42 39 38 38 39 38 36 35 34 33 32 32 32 30 29 31 34 32 31 31 30 29 28 26 25 25 24 24 23 23 23 23 24 26 27 29 31 32 33 34 36 37 39 42 45 48 51 53 54 57 58 55 50 44 39 35 33 34 35 35 34 33 32 31 30 30 29 28 27 26 24 23
37 36 38 44 50 54 54 53 50 48 47 47 46 45 44 42 40 38 39 40 39 37 35 34 33 33 33 32 30 29 32 34 33 32 31 31 29 28 26 25 25 25 25 24 23 23 23 24 25 27 29 31 33 33 33 35 37 39 41 43 46 49 52 53 54 56 56 51 45 40 37 35 34 35 35 34 33 31 30 30 29 28 28 28 27 25 23
37 36 38 44 51 54 54 52 50 49 48 48 47 46 44 42 40 39 40 41 39 37 35 34 34 34 34 32 30 29 32 35 34 32 31 31 30 28 27 26 26 25 25 25 24 23 24 24 25 27 29 31 33 34 34 35 36 38 40 42 45 48 50 51 52 54 55 52 46 41 37 35 34 34 34 33 32 30 29 29 28 28 27 27 27 25 23
37 37 38 43 51 55 54 52 51 50 50 49 48 46 44 42 40 40 41 41 39 37 36 36 35 34 34 32 30 29 32 35 34 33 32 31 30 28 27 27 27 26 25 25 24 24 24 24 25 27 29 31 33 34 35 35 36 37 39 41 43 46 49 50 51 52 53 52 48 42 37 34 33 32 32 32 31 30 29 28 27 27 26 26 27 26 23
37 38 39 43 50 55 56 55 53 52 51 50 49 46 44 42 41 42 42 41 39 38 37 36 35 35 34 32 30 29 32 35 34 33 32 31 30 29 28 28 27 26 25 25 25 24 24 25 26 28 29 32 33 34 35 36 36 37 39 40 42 45 48 49 51 52 52 52 50 44 39 35 33 31 32 32 31 30 29 28 27 27 26 25 25 25 23
38 39 40 43 49 54 57 58 56 55 53 52 49 46 45 43 42 43 43 42 40 39 37 36 36 35 34 33 30 29 33 35 34 33 32 31 30 29 29 28 27 26 26 26 26 25 24 25 27 28 30 32 34 35 36 36 37 37 38 40 41 44 46 48 50 51 52 52 51 47 42 38 35 33 32 33 32 31 29 28 27 26 26 25 25 25 24
39 39 41 43 47 52 56 57 57 55 54 52 49 47 46 45 44 43 42 41 41 40 37 36 36 36 34 32 30 30 33 35 34 33 32 32 31 30 29 28 27 27 27 26 26 26 25 26 27 29 31 32 34 35 36 37 37 38 38 39 41 43 45 47 48 50 52 52 52 49 44 39 36 34 33 33 33 32 31 29 28 26 26 25 24 25 25
39 40 41 43 46 50 53 55 55 55 53 51 49 47 47 46 44 42 42 41 41 39 37 37 36 36 34 32 29 30 34 36 34 33 32 32 31 31 29 29 28 27 27 27 27 26 26 26 28 30 31 33 34 35 36 37 37 38 38 39 40 42 44 45 46 48 50 51 52 51 47 41 37 35 33 33 34 33 32 30 29 27 26 25 24 24 25
40 41 42 43 44 46 48 50 51 52 51 50 49 48 48 47 45 43 42 42 41 39 38 37 37 36 34 31 29 30 35 36 34 32 32 32 32 31 29 29 28 28 27 27 27 27 27 27 29 30 32 33 34 35 36 37 37 38 38 39 40 42 43 44 45 47 48 50 51 52 49 44 39 36 34 32 33 34 33 31 30 28 27 25 24 24 25
40 41 42 43 44 45 45 45 46 48 49 49 49 49 48 47 46 44 43 43 41 40 38 38 37 35 34 31 29 31 35 37 34 33 32 32 32 31 30 29 29 28 28 28 27 28 28 29 29 30 32 33 35 36 37 37 37 38 38 39 40 42 43 43 44 45 47 48 50 51 51 47 42 38 35 33 32 33 33 31 30 28 27 26 25 24 24
39 40 42 44 46 47 47 46 46 47 49 49 49 50 49 49 48 46 44 43 41 39 39 38 36 35 34 31 29 31 35 36 35 34 33 32 31 30 29 29 29 29 28 28 28 28 29 29 30 30 31 33 34 36 37 37 37 38 39 39 40 41 42 43 44 46 47 48 49 50 51 50 45 40 36 33 32 32 32 31 30 28 27 26 25 24 24
39 40 42 45 48 49 49 49 50 51 52 52 51 51 51 51 49 48 45 42 40 39 40 38 35 34 34 32 30 32 36 36 34 34 33 32 31 30 29 29 29 29 29 29 28 29 29 29 29 30 31 33 34 35 36 37 37 38 39 40 41 41 42 43 45 46 47 48 49 50 51 51 48 43 38 34 32 31 31 30 29 28 27 25 25 24 22
39 40 42 45 48 50 52 53 53 54 55 55 55 55 55 53 52 49 45 41 40 40 40 37 35 34 34 33 32 34 36 35 34 33 32 30 30 29 28 28 29 29 29 29 28 28 29 29 29 30 31 32 33 34 35 36 37 38 39 40 41 41 42 43 45 46 47 48 49 50 51 52 50 46 41 36 32 30 29 29 28 27 26 24 23 22 21
40 41 43 45 47 48 51 53 56 57 58 58 59 58 56 53 50 46 43 41 41 41 39 37 35 34 34 33 33 35 36 35 33 32 30 29 28 28 27 27 27 28 28 27 27 27 27 28 28 29 30 31 33 34 35 36 37 38 39 40 41 41 42 44 45 46 48 49 49 50 51 52 51 48 43 38 34 31 29 28 27 26 25 23 22 21 20
40 41 43 45 47 48 48 50 53 56 58 59 59 57 53 48 45 43 41 41 41 41 39 37 35 34 34 33 34 35 35 34 33 30 28 27 26 25 25 25 26 26 25 25 25 25 26 27 27 28 29 30 32 34 35 36 37 38 39 40 41 41 43 45 46 47 48 49 50 51 52 53 53 49 44 39 36 32 30 28 27 26 25 23 22 21 19
41 42 44 45 47 49 50 51 52 53 54 55 54 53 50 47 44 43 43 42 42 41 40 37 35 34 34 34 34 35 34 33 32 29 27 25 25 24 24 24 24 24 24 24 24 25 25 26 26 27 28 29 31 33 35 36 37 38 39 40 40 41 43 45 47 48 49 50 50 51 53 54 54 50 45 40 36 33 31 30 28 27 25 24 23 22 21
42 43 44 46 47 50 53 54 54 54 54 53 53 52 50 48 46 46 45 44 44 42 40 37 35 35 35 34 34 33 34 33 30 27 26 25 25 25 24 24 23 23 23 24 24 25 26 27 26 27 28 30 31 33 35 36 37 38 39 39 40 42 43 45 47 49 50 51 51 52 53 55 55 52 46 40 36 33 32 30 29 28 27 26 25 24 23
42 45 47 48 51 53 54 54 53 54 55 55 55 53 51 49 48 48 47 46 44 42 40 37 35 35 36 35 34 34 34 33 30 27 27 26 26 26 25 24 24 23 24 25 26 26 28 28 28 29 30 31 32 33 35 36 37 38 39 39 40 42 44 45 47 49 51 52 52 53 54 55 55 52 47 41 36 33 32 31 30 30 29 28 27 26 26
44 46 48 50 53 54 54 52 52 53 53 53 52 52 52 51 50 49 48 47 45 42 39 37 36 36 37 37 35 35 35 33 31 29 28 28 27 27 26 25 25 25 26 27 28 29 30 30 30 31 32 33 33 34 35 36 37 38 39 40 41 43 44 46 47 49 51 52 54 55 56 57 55 51 47 42 38 34 32 31 30 31 30 30 29 29 29
43 44 45 46 47 47 47 47 48 49 50 49 49 49 49 49 49 48 47 45 43 40 38 37 37 38 39 38 37 36 36 34 32 31 30 29 29 28 27 26 26 27 28 29 30 31 32 32 32 32 33 34 35 35 36 37 38 39 40 41 42 44 45 46 48 49 51 53 55 57 58 58 56 52 47 43 39 36 33 31 31 31 31 31 31 31 31
39 40 40 39 39 40 40 41 42 43 43 43 44 46 46 46 46 45 44 42 41 40 39 38 38 40 41 39 38 38 37 35 34 32 31 30 29 28 28 28 29 29 31 32 33 34 34 34 34 34 35 35 36 36 37 38 39 40 41 42 44 45 47 48 49 50 51 53 55 57 59 59 57 53 48 44 41 38 35 33 32 31 32 32 31 31 32
35 36 35 35 36 37 37 36 36 35 35 37 40 44 46 47 47 46 44 43 42 40 39 39 40 42 41 39 38 37 37 36 35 33 32 31 30 29 30 30 31 32 34 35 36 36 37 37 37 36 36 37 37 37 38 39 40 41 42 43 45 47 48 50 51 52 53 54 56 58 59 58 56 52 49 46 43 40 37 34 33 32 32 32 32 32 32
33 33 32 32 33 33 32 31 31 31 33 36 39 43 47 50 51 48 46 43 41 40 40 41 43 43 41 39 38 38 37 36 35 33 32 32 31 31 32 32 33 35 36 37 37 38 38 38 38 37 37 38 38 38 38 39 40 42 43 44 46 48 50 52 54 55 56 58 59 60 60 57 54 50 48 46 44 42 39 35 33 33 33 33 33 33 33
31 31 31 32 32 32 32 32 33 35 38 40 42 45 49 51 50 47 44 43 42 42 43 44 43 41 39 39 38 38 37 36 35 34 33 33 32 33 33 34 35 36 37 37 37 38 38 38 38 38 38 39 39 39 39 39 41 42 44 45 47 49 51 53 55 57 59 61 63 63 61 58 53 50 48 46 44 43 40 37 34 33 33 33 34 34 34
31 31 31 31 31 32 34 36 39 41 42 43 44 46 47 48 47 46 45 45 45 45 45 43 41 40 39 39 39 38 37 35 34 34 34 33 33 34 35 36 36 37 37 37 37 37 37 38 38 38 39 39 39 39 39 40 41 43 44 46 48 50 52 54 57 59 62 64 66 66 64 60 56 52 49 46 43 41 40 38 35 34 33 33 34 35 35
30 30 30 31 32 35 37 40 41 42 42 42 43 43 45 46 47 47 47 47 46 46 44 41 39 39 39 39 38 37 36 35 35 34 34 34 34 35 36 37 37 38 38 37 37 37 37 37 38 38 39 39 39 39 39 40 41 43 45 47 49 51 52 55 58 61 64 66 67 66 65 63 59 56 52 48 43 39 37 37 36 35 34 34 33 34 35
30 31 33 35 37 38 38 38 38 38 38 39 40 42 44 46 47 47 47 46 44 42 41 39 39 39 39 38 37 36 35 35 35 35 35 35 35 36 37 37 37 37 37 37 36 36 36 36 37 38 38 38 38 39 40 41 42 44 46 48 50 52 53 56 59 62 64 65 66 65 64 63 61 58 55 51 46 40 35 34 35 35 36 36 35 34 35
31 33 34 35 35 35 34 35 36 37 39 40 42 44 46 47 47 46 44 42 40 38 38 38 39 39 38 36 36 36 36 36 35 36 36 36 36 37 38 38 37 36 36 36 36 36 35 36 36 37 37 37 38 39 41 43 44 46 48 50 51 53 55 58 61 63 65 65 64 64 63 62 61 59 56 52 48 42 36 32 32 33 35 37 37 36 36
33 34 34 34 34 35 36 38 39 40 42 43 44 44 43 43 43 41 39 37 36 37 37 38 38 37 36 35 36 37 37 36 36 37 37 37 37 38 38 38 37 36 35 35 36 36 35 36 36 36 37 38 39 40 42 44 46 48 50 50 51 53 56 59 62 64 64 64 64 64 63 63 61 59 56 51 47 43 38 34 32 31 33 35 37 37 37
35 35 36 36 36 37 38 39 39 39 39 40 40 39 37 37 36 36 35 35 36 36 36 37 36 35 35 35 36 37 37 37 38 38 38 37 37 37 37 38 37 36 35 35 36 36 36 36 36 36 37 37 39 41 43 45 47 49 50 51 53 55 58 60 62 63 63 63 64 64 65 64 62 59 55 50 45 42 39 36 34 33 33 35 37 38 39
Wind_Direction
262 255 249 248 248 248 250 252 254 255 257 262 268 274 278 282 288 295 301 305 308 311 312 306 293 280 270 263 261 265 272 279 286 293 301 304 300 300 306 313 320 324 327 332 337 343 345 346 348 349 349 351 352 354 356 358 359 358 355 354 352 352 353 352 346 340 335 330 320 307 294 286 285 289 295 298 293 283 273 269 268 269 271 275 279 280 281
265 259 251 245 244 245 246 249 253 255 254 256 262 269 274 278 284 291 297 301 305 308 311 308 297 283 270 263 261 263 269 277 283 290 298 302 298 297 302 307 315 320 324 330 337 343 345 347 349 350 351 352 353 355 356 358 359 358 357 355 353 354 355 354 350 344 337 329 322 313 296 280 276 281 289 295 296 290 280 275 276 277 277 278 281 282 280
267 261 251 243 241 242 244 246 251 254 255 254 257 264 270 273 279 287 293 298 301 305 309 308 301 287 272 264 262 263 268 276 283 289 298 299 295 294 296 302 310 317 322 329 336 342 345 347 350 351 352 354 355 356 357 357 357 357 357 357 356 355 354 354 353 348 341 335 330 321 304 280 269 273 285 296 301 297 290 285 283 282 282 282 280 281 282
267 261 252 243 239 240 242 245 248 252 255 254 254 258 265 270 275 283 289 293 298 302 306 308 303 290 273 264 263 264 268 276 282 287 294 295 290 290 293 300 310 315 319 327 335 341 344 347 350 352 353 355 356 358 358 357 356 356 357 358 358 357 355 353 353 351 345 342 341 334 317 283 263 267 281 292 298 298 293 289 287 285 285 285 280 278 281
268 260 252 244 239 238 239 243 246 249 251 253 254 255 260 267 271 278 284 289 294 298 303 307 304 291 273 261 260 262 266 273 278 282 289 291 287 288 293 301 308 310 314 323 333 340 344 347 350 352 354 355 357 359 359 357 356 357 358 358 358 358 357 353 351 353 351 348 349 345 330 293 263 262 274 284 292 297 296 293 292 290 286 284 282 279 279
269 260 252 246 241 237 236 240 244 247 248 251 254 254 255 262 268 273 280 285 289 294 300 305 304 291 273 258 256 258 261 267 273 278 284 288 287 288 294 299 302 303 308 319 330 337 343 346 349 352 354 355 357 359 359 358 358 357 358 358 358 358 357 354 351 352 354 353 353 350 339 308 273 266 272 281 289 296 300 301 301 297 291 287 287 285 282
269 261 252 245 240 237 236 238 241 244 246 250 255 253 251 257 264 269 276 281 285 291 297 302 304 293 274 258 252 253 256 263 269 274 280 284 284 286 292 295 296 298 304 315 326 334 341 345 347 351 353 354 356 358 358 358 358 358 358 358 358 357 357 355 353 351 351 355 357 353 343 318 286 277 278 281 289 298 304 307 305 301 297 293 291 290 289
268 262 253 244 238 236 236 236 238 241 244 250 255 252 249 253 260 265 272 277 282 288 294 300 304 297 278 260 251 250 253 260 266 271 276 279 279 282 288 292 294 297 303 314 324 331 337 342 345 349 352 354 355 357 357 358 358 358 358 358 358 357 356 356 354 351 349 351 356 355 347 326 296 284 282 283 287 294 300 302 302 301 300 298 293 291 291
268 261 254 244 238 235 234 234 236 239 242 248 252 250 249 252 256 261 268 274 279 285 291 297 303 301 284 264 253 251 252 257 264 269 274 277 278 281 286 289 293 296 302 312 322 328 333 339 343 346 349 352 354 356 357 357 357 358 359 358 357 357 356 356 355 352 349 347 350 352 349 335 310 290 284 283 284 287 291 294 295 297 298 298 296 291 289
268 260 254 244 236 234 232 231 233 237 241 246 250 250 249 250 253 258 265 270 275 282 288 294 301 303 289 268 255 252 252 256 263 268 273 276 278 279 284 287 291 295 300 309 318 323 328 335 340 343 347 350 353 355 357 357 357 357 358 358 357 356 356 355 354 352 349 345 344 345 346 342 326 306 292 285 282 283 285 287 290 293 295 296 295 292 289
268 260 253 243 235 232 230 229 231 236 240 245 247 248 249 249 250 255 262 267 272 278 285 290 296 301 294 273 256 250 251 255 262 267 270 272 275 276 280 285 288 291 297 304 311 318 325 331 337 341 345 348 350 352 356 357 357 357 357 356 356 356 356 355 353 351 348 344 340 338 341 342 336 322 306 293 286 283 282 284 286 288 290 290 290 289 288
267 261 252 242 234 230 229 228 230 235 239 243 245 246 248 248 247 252 259 264 269 275 281 287 292 298 297 281 259 249 249 253 258 264 267 269 270 271 276 282 286 288 292 298 306 314 321 327 334 339 343 346 347 350 354 356 357 357 356 355 355 355 355 354 352 350 348 344 339 334 336 339 337 330 321 309 298 290 285 283 283 284 285 286 286 286 286
267 260 252 242 233 229 228 227 229 233 238 242 244 245 246 246 246 249 255 260 266 272 277 284 289 294 296 287 263 248 246 250 255 260 265 268 268 269 274 281 285 287 291 297 303 310 317 324 331 337 341 344 346 348 351 354 355 356 355 355 354 354 355 354 352 349 347 345 339 332 331 335 336 332 328 323 317 308 299 290 285 284 283 283 284 285 285
266 260 252 242 232 228 226 226 228 232 235 240 243 243 244 245 245 247 252 257 263 268 273 280 286 290 294 289 268 249 244 247 252 257 262 265 267 270 274 279 284 287 291 296 300 305 313 321 328 333 337 342 345 347 349 352 353 354 355 355 354 354 354 354 352 350 347 344 340 334 329 332 334 333 329 326 323 319 313 306 298 292 287 284 285 285 286
265 259 252 241 231 227 225 224 227 231 234 238 241 242 244 247 246 245 248 254 260 265 270 276 282 287 291 290 273 252 244 246 251 255 260 262 264 267 270 275 281 285 289 294 296 301 308 316 323 329 333 338 343 346 347 349 352 353 355 355 355 354 354 354 352 350 348 345 340 336 330 328 331 332 331 329 324 317 313 311 309 304 297 290 288 287 287
264 259 251 240 231 226 224 223 225 230 233 237 241 243 246 249 247 244 246 253 259 263 267 273 279 284 288 289 276 255 245 246 250 254 258 261 263 264 266 270 276 281 286 290 293 296 304 311 318 324 330 335 340 344 346 348 351 353 354 355 354 353 354 354 353 351 350 347 341 336 332 328 330 333 335 334 329 322 315 311 307 305 301 296 292 288 287
263 257 250 240 230 225 223 221 223 228 231 236 240 244 248 249 247 244 247 253 258 261 265 270 276 281 286 288 278 256 244 245 249 253 257 260 262 264 265 268 273 277 282 286 289 294 300 306 313 321 327 332 337 341 344 347 349 352 353 354 354 354 353 355 355 353 351 350 345 338 334 332 333 335 336 335 333 330 326 320 311 308 306 302 297 291 287
263 256 248 238 229 224 222 220 221 225 230 234 239 244 247 247 245 244 247 252 255 259 263 268 274 279 284 287 280 258 243 242 246 250 254 259 261 264 266 270 273 275 279 284 288 292 297 302 310 319 325 330 335 339 342 345 347 350 352 353 354 354 354 355 356 355 353 352 350 343 337 335 335 336 336 335 335 335 332 328 324 322 319 314 308 300 291
262 255 245 235 227 223 220 218 219 224 229 233 238 242 244 244 243 246 248 250 252 256 261 265 270 276 281 285 281 261 243 240 244 248 253 257 261 264 267 270 273 275 279 284 288 291 296 301 309 316 322 327 332 336 339 343 345 347 350 353 354 354 354 354 356 356 355 354 354 349 342 337 336 336 336 336 336 335 333 333 332 328 323 320 320 318 306
261 254 243 232 225 221 219 218 219 224 228 232 236 240 241 240 242 246 248 248 250 255 259 263 268 273 277 282 281 263 245 240 243 247 252 255 259 263 265 267 271 275 279 285 289 293 297 302 307 314 319 324 328 332 337 341 343 345 349 352 353 354 355 354 355 356 356 355 354 351 344 339 336 336 337 337 336 335 334 334 333 328 325 325 327 328 323
259 251 239 229 223 219 218 218 219 223 227 231 235 238 239 238 241 246 247 246 249 253 257 261 266 271 275 280 280 265 245 239 242 246 250 254 257 260 264 266 269 274 279 285 291 294 297 302 306 311 316 320 324 328 334 338 341 343 346 350 352 353 355 355 355 356 355 354 352 350 345 341 337 336 337 337 336 334 333 332 331 329 329 330 329 329 328
257 248 236 226 221 218 217 218 219 223 227 231 234 236 237 238 242 246 247 246 247 250 255 260 264 269 273 277 279 266 246 238 241 244 248 252 256 259 263 265 268 272 277 283 289 293 297 302 306 309 313 316 320 324 330 335 338 340 343 347 350 352 354 355 355 355 355 353 350 348 345 342 339 336 336 336 335 334 333 330 329 330 330 329 328 326 325
255 245 233 224 218 216 216 218 219 222 225 229 232 235 236 238 243 247 246 244 245 249 254 258 262 267 271 275 278 267 247 238 239 243 246 250 254 257 261 264 267 272 276 281 286 291 297 303 306 308 311 313 316 321 326 331 335 338 341 344 347 350 352 354 355 355 355 353 350 346 344 342 340 336 335 336 335 334 331 328 327 328 328 327 326 324 321
252 242 231 222 216 214 215 217 219 221 224 228 231 233 235 238 243 247 244 241 243 248 252 255 260 266 269 272 275 267 248 238 238 242 245 250 253 255 260 263 267 272 275 279 284 290 296 301 305 307 309 311 314 318 323 327 332 335 338 341 345 347 350 352 354 355 354 353 350 346 343 341 339 337 335 335 335 333 329 326 325 325 325 324 323 322 318
249 239 228 219 214 213 215 216 217 219 222 226 230 233 236 239 244 246 242 239 243 247 249 252 258 264 268 270 272 265 247 237 238 241 244 249 252 255 259 263 266 270 273 278 283 289 294 300 304 306 308 310 313 317 321 324 328 332 335 339 342 344 347 350 352 354 354 353 351 347 343 340 339 338 335 334 334 332 328 325 323 323 323 322 321 320 318
245 236 226 217 212 212 213 215 217 219 221 225 230 234 237 240 244 244 241 239 242 245 247 250 256 262 266 269 271 263 246 237 237 240 243 248 251 254 258 262 265 269 273 277 282 286 292 298 302 305 307 310 312 315 318 322 325 328 332 336 339 341 344 347 350 352 353 354 352 349 345 341 339 338 337 335 334 333 329 325 322 321 321 321 320 320 320
241 232 224 216 211 211 212 214 216 219 221 226 230 234 237 240 242 242 240 240 242 244 246 250 256 261 264 267 269 261 245 236 237 239 242 247 250 253 257 260 264 268 273 277 281 285 290 296 300 304 307 309 311 314 317 319 322 325 329 334 337 339 341 345 348 349 351 353 353 350 347 343 340 339 339 339 337 335 332 327 324 322 321 321 320 320 321
237 229 222 216 211 211 212 214 217 220 224 227 230 233 236 238 241 241 240 241 242 243 245 250 255 260 263 265 266 257 242 236 238 239 240 245 250 252 256 260 263 268 273 277 281 284 289 294 298 302 305 307 309 312 315 317 319 322 326 331 334 337 339 342 346 347 349 352 353 352 349 345 342 341 341 342 341 339 335 331 327 324 322 322 321 321 321
234 227 221 215 212 213 214 216 218 221 225 228 229 232 235 238 240 240 240 241 241 241 245 250 255 260 263 263 262 253 240 236 238 239 240 244 248 252 256 260 263 267 272 276 280 284 288 293 297 300 303 305 307 311 313 315 317 320 324 328 331 334 337 340 343 346 347 350 352 353 351 347 344 342 343 343 343 342 339 334 330 325 323 321 321 321 321
232 226 220 216 214 215 216 218 219 221 224 227 229 232 236 238 239 239 239 239 239 241 246 250 254 259 261 260 258 249 237 234 238 240 240 243 247 250 255 259 262 267 271 275 279 283 287 292 295 298 300 303 306 309 311 313 315 318 321 326 329 332 335 338 342 344 346 348 350 352 352 350 346 343 343 343 344 343 342 337 332 327 324 322 320 320 319
230 225 220 217 216 217 218 219 220 221 223 226 228 232 235 236 237 238 238 238 239 243 246 249 252 258 259 258 255 246 234 232 236 240 241 243 246 249 254 259 262 266 270 274 278 282 286 290 292 295 299 301 304 307 309 311 313 316 319 323 327 330 333 336 340 343 344 346 349 351 352 351 347 344 343 343 343 344 344 340 335 329 325 322 320 318 317
229 225 221 218 217 217 217 218 219 220 222 224 227 230 232 234 235 236 237 239 241 243 245 246 251 256 257 256 253 244 233 231 236 240 241 243 246 249 254 258 262 266 269 273 277 282 285 287 290 293 297 300 302 305 307 309 312 315 317 321 325 328 331 334 338 341 343 345 347 350 352 352 349 346 343 341 342 344 344 342 337 331 326 323 320 318 317
229 225 220 217 217 218 218 218 219 221 224 226 227 229 231 233 235 236 239 242 242 241 242 245 249 253 254 254 251 242 232 232 236 240 241 243 246 249 254 258 262 266 269 272 276 280 282 285 289 292 296 298 300 302 305 308 311 313 316 320 323 326 329 332 336 339 342 344 346 348 351 352 350 347 343 340 339 341 343 343 339 334 329 325 322 320 319
229 226 222 219 218 219 218 219 220 223 225 227 228 230 232 234 235 238 241 241 238 237 240 243 248 251 252 252 248 239 231 233 237 239 241 243 246 249 254 258 262 265 268 271 274 277 280 284 288 292 294 296 298 301 304 308 310 313 315 319 322 325 328 331 335 338 340 342 344 346 349 351 350 347 343 339 336 337 339 341 341 337 332 328 325 322 321
228 226 224 223 222 221 220 220 221 223 226 228 229 231 233 235 238 240 240 237 234 236 239 242 247 251 251 251 245 235 230 233 237 239 240 243 246 250 255 259 262 265 268 270 274 277 281 285 288 290 293 295 298 302 304 307 309 311 314 318 321 324 327 330 333 336 338 340 342 344 347 349 348 346 343 338 333 331 332 335 338 337 335 332 329 326 326
228 227 225 225 225 224 223 223 223 224 226 228 230 232 234 236 237 237 235 233 234 237 239 243 248 250 250 249 241 231 229 233 237 238 240 244 247 251 256 259 263 266 269 272 276 279 282 284 286 289 292 295 299 302 303 305 308 311 314 317 320 323 326 328 331 334 336 338 340 341 344 346 346 345 341 337 331 326 324 325 329 331 333 334 333 333 333
229 228 227 227 227 226 226 225 225 226 227 229 231 233 234 233 232 231 230 231 235 237 239 243 247 248 248 245 236 228 229 233 235 236 241 244 247 251 255 258 262 266 269 273 276 279 281 283 286 289 293 297 300 302 303 305 308 310 313 316 319 322 325 328 330 332 334 336 338 339 341 343 343 342 340 335 329 322 318 316 318 321 325 328 331 332 333
230 229 229 229 228 229 228 227 227 227 228 229 230 232 231 229 228 228 229 231 233 236 239 244 245 244 243 238 230 227 230 232 232 235 240 243 245 249 252 255 259 264 269 273 276 279 281 284 287 291 295 299 302 302 303 305 307 310 312 315 318 321 324 327 329 330 332 334 335 337 338 340 340 339 338 333 327 320 313 309 309 311 314 318 320 322 324
232 232 231 230 230 230 230 230 229 229 229 228 229 229 229 228 228 229 230 231 233 236 240 242 241 239 236 229 224 226 230 231 230 233 237 239 243 246 249 253 258 264 271 275 278 281 284 287 290 294 297 300 302 301 301 303 306 308 311 314 317 320 323 326 327 328 330 331 333 335 336 337 337 337 335 331 326 319 311 305 302 302 304 306 309 311 313
232 232 232 231 231 232 232 231 230 230 230 230 229 229 229 228 227 228 230 231 233 236 237 236 234 234 229 222 221 226 229 228 229 232 234 237 241 245 248 254 260 265 272 277 280 283 286 289 292 295 298 300 301 300 300 302 304 306 309 313 316 319 322 324 326 327 328 329 330 332 333 334 335 334 332 329 325 318 310 302 297 295 295 297 299 302 304
230 229 228 228 229 230 231 231 230 230 230 230 230 230 230 229 229 229 230 231 232 233 231 228 229 228 223 218 221 226 228 227 228 230 232 236 241 245 249 255 261 266 273 278 281 284 287 289 293 296 298 299 299 299 300 302 303 305 309 312 315 317 320 322 324 325 326 327 328 330 331 333 333 333 331 328 323 319 311 302 294 290 289 290 293 295 297
229 229 229 230 230 231 231 230 230 229 229 229 228 228 228 228 227 228 228 228 227 224 222 224 226 223 217 217 222 226 226 228 229 230 232 237 242 247 252 258 263 269 274 278 281 284 286 288 291 295 297 297 298 298 300 301 302 305 308 311 314 316 318 320 322 323 324 325 327 328 330 332 332 332 330 326 323 319 313 305 295 288 285 285 287 289 291
230 231 231 231 232 232 232 232 231 229 228 227 226 225 224 224 223 222 221 219 217 216 218 222 222 216 214 219 224 225 227 230 232 232 235 239 245 251 257 262 267 272 276 279 282 284 285 288 291 293 294 295 296 297 299 301 302 305 308 311 313 316 317 318 320 321 322 324 325 327 329 331 331 330 328 325 322 318 314 307 299 290 285 283 283 284 286
229 229 229 228 227 227 227 228 228 228 225 223 222 221 221 220 218 217 215 212 211 214 218 219 216 212 215 221 224 226 229 232 234 235 239 243 249 255 262 266 271 275 278 280 283 284 285 288 290 291 291 292 294 297 299 300 303 306 309 311 313 315 317 318 319 320 321 322 324 326 328 330 330 329 327 324 321 318 313 307 300 292 287 283 282 282 282
224 224 223 223 223 222 221 219 219 218 217 216 215 214 214 214 213 211 209 209 211 214 216 214 211 212 216 221 224 227 231 234 236 239 243 248 253 259 264 269 274 277 279 282 284 285 286 287 287 288 289 291 293 296 298 300 303 307 309 312 314 316 317 318 319 319 321 322 324 326 327 328 329 329 326 324 320 316 312 306 300 293 288 284 282 281 281
220 218 217 216 215 213 210 208 207 207 208 208 207 207 207 207 205 204 204 207 211 212 211 209 210 213 218 222 226 230 233 236 239 243 248 252 257 262 267 272 276 279 281 283 284 284 285 285 285 286 288 290 292 295 298 300 303 306 309 312 315 316 317 318 318 319 321 322 324 325 326 327 328 329 327 324 320 315 311 305 298 292 287 284 282 282 282
215 214 213 212 211 207 203 202 202 202 202 202 202 202 201 198 197 198 202 205 206 206 206 207 211 215 219 223 228 231 235 238 243 247 251 256 261 265 269 273 276 279 281 282 283 283 283 282 283 285 287 289 292 295 298 301 304 307 310 313 315 316 317 317 318 319 321 322 324 325 326 326 327 328 327 325 320 315 310 304 298 292 287 284 282 282 283
210 207 204 203 202 200 199 199 199 199 198 198 197 196 194 192 193 196 199 200 201 202 205 209 213 217 221 226 230 233 237 242 246 250 254 259 263 267 271 274 277 279 280 281 281 281 281 281 282 284 287 290 293 296 299 302 305 309 311 313 314 315 316 317 318 319 321 323 324 324 325 325 326 326 326 325 322 316 310 303 297 293 289 286 284 283 283
203 198 195 195 196 197 197 196 195 194 193 192 190 189 189 189 190 192 194 196 198 202 207 211 215 219 224 228 232 236 240 244 249 253 257 261 265 269 273 276 278 279 280 280 280 280 280 281 283 285 288 291 295 298 300 303 306 309 311 312 313 314 315 316 317 319 321 322 323 323 323 323 324 324 324 324 322 318 311 303 296 292 289 288 286 284 283
193 191 191 192 192 190 188 187 185 184 184 183 182 183 185 186 187 189 192 196 201 206 210 214 218 222 226 230 234 239 243 247 252 256 260 264 268 272 275 278 279 279 279 279 280 280 281 282 284 286 289 292 295 299 302 305 307 309 311 312 314 315 316 316 317 318 320 320 321 320 321 321 322 322 322 322 320 318 313 305 297 291 288 287 286 285 284
185 184 184 183 181 179 178 179 180 180 180 180 181 182 183 185 188 192 197 201 206 211 215 219 222 226 230 234 239 243 247 251 255 258 262 266 270 274 276 278 278 278 278 279 280 280 281 283 285 287 290 293 297 300 304 307 308 310 311 312 313 314 314 315 316 317 318 318 318 318 319 320 320 320 319 319 317 314 311 306 300 294 289 286 285 285 284
178 177 176 175 174 175 177 178 179 180 181 181 182 184 186 190 194 199 203 207 212 216 220 223 227 230 234 238 243 247 250 253 257 261 265 269 272 275 276 277 277 278 278 279 279 281 282 284 287 289 292 296 299 302 305 306 308 309 309 310 311 311 312 313 315 316 316 317 317 318 318 319 319 318 317 316 314 311 308 306 303 299 294 290 288 287 286
Height
10577 10578 10580 10584 10587 10589 10591 10593 10595 10596 10597 10598 10599 10600 10600 10600 10599 10599 10598 10597 10595 10593 10591 10590 10589 10589 10589 10591 10592 10593 10593 10593 10592 10591 10590 10588 10586 10585 10584 10583 10582 10580 10578 10576 10573 10569 10565 10561 10557 10552 10547 10542 10536 10531 10526 10521 10516 10511 10507 10503 10499 10495 10491 10486 10483 10479 10477 10474 10471 10469 10468 10467 10466 10465 10464 10465 10465 10465 10466 10466 10466 10466 10466 10465 10463 10464 10465
10571 10572 10575 10577 10580 10583 10585 10587 10590 10591 10592 10594 10595 10596 10597 10596 10595 10595 10595 10593 10592 10590 10589 10587 10586 10586 10586 10587 10588 10589 10590 10590 10589 10588 10587 10586 10585 10583 10582 10581 10580 10579 10577 10574 10571 10568 10564 10560 10556 10551 10546 10541 10536 10531 10526 10521 10517 10512 10508 10503 10499 10494 10490 10486 10482 10478 10475 10473 10469 10467 10465 10464 10463 10462 10462 10462 10463 10463 10464 10464 10463 10463 10463 10463 10461 10460 10461
10566 10567 10568 10571 10573 10576 10579 10581 10584 10586 10587 10589 10591 10592 10593 10592 10592 10592 10591 10590 10589 10587 10586 10584 10583 10582 10583 10583 10584 10585 10586 10586 10585 10585 10584 10584 10583 10581 10581 10579 10578 10576 10575 10572 10569 10566 10563 10559 10555 10550 10546 10541 10536 10531 10526 10522 10518 10513 10508 10503 10497 10492 10488 10485 10481 10477 10474 10470 10467 10463 10461 10460 10460 10460 10460 10460 10461 10461 10461 10461 10461 10460 10460 10460 10460 10457 10457
10559 10560 10562 10564 10566 10569 10573 10576 10579 10581 10582 10584 10586 10588 10588 10588 10588 10588 10588 10587 10585 10584 10583 10581 10580 10579 10580 10580 10581 10582 10582 10582 10582 10582 10581 10581 10580 10579 10578 10577 10576 10574 10572 10570 10567 10564 10561 10557 10553 10549 10545 10541 10536 10531 10527 10522 10518 10513 10508 10502 10497 10492 10487 10483 10480 10477 10472 10468 10464 10460 10458 10457 10457 10458 10459 10459 10459 10459 10459 10458 10458 10458 10457 10457 10457 10456 10454
10553 10554 10555 10556 10559 10563 10567 10570 10573 10575 10577 10579 10582 10583 10584 10584 10584 10584 10584 10583 10582 10581 10580 10578 10577 10576 10577 10577 10578 10578 10579 10579 10579 10579 10579 10578 10578 10577 10576 10575 10574 10572 10571 10568 10566 10563 10559 10555 10551 10548 10544 10540 10536 10531 10527 10522 10517 10511 10507 10502 10497 10491 10487 10483 10479 10476 10471 10466 10462 10458 10456 10455 10456 10457 10457 10457 10457 10457 10456 10456 10455 10456 10455 10454 10453 10454 10453
10547 10548 10549 10550 10553 10557 10560 10563 10567 10570 10572 10574 10577 10578 10580 10581 10581 10581 10580 10580 10579 10578 10577 10576 10574 10573 10573 10574 10574 10575 10576 10576 10576 10576 10576 10576 10575 10574 10573 10572 10572 10571 10569 10567 10564 10561 10558 10554 10551 10547 10543 10539 10534 10530 10526 10521 10516 10511 10506 10501 10496 10491 10486 10482 10477 10474 10470 10466 10462 10458 10456 10455 10455 10456 10456 10455 10455 10455 10454 10454 10453 10453 10453 10451 10450 10450 10450
10541 10542 10543 10545 10547 10550 10554 10557 10561 10564 10567 10569 10571 10573 10575 10576 10577 10577 10576 10576 10576 10574 10573 10573 10572 10570 10570 10571 10571 10572 10573 10573 10573 10573 10573 10573 10572 10571 10570 10570 10569 10568 10567 10565 10562 10560 10557 10553 10550 10546 10542 10538 10533 10529 10525 10521 10516 10511 10505 10500 10495 10490 10486 10481 10476 10472 10469 10466 10462 10459 10457 10456 10455 10455 10455 10454 10454 10453 10453 10452 10451 10450 10449 10449 10448 10446 10446
10535 10536 10537 10539 10541 10544 10547 10551 10555 10558 10561 10564 10566 10568 10570 10572 10573 10573 10572 10572 10572 10571 10570 10570 10568 10567 10567 10567 10568 10569 10570 10570 10570 10570 10571 10570 10569 10569 10568 10567 10566 10565 10564 10562 10560 10558 10555 10552 10549 10545 10542 10538 10533 10529 10525 10520 10515 10510 10504 10499 10494 10490 10485 10480 10476 10471 10467 10464 10462 10460 10458 10456 10455 10455 10454 10453 10453 10452 10451 10450 10449 10448 10447 10446 10445 10444 10442
10529 10530 10531 10533 10535 10537 10541 10545 10549 10552 10556 10559 10561 10563 10565 10567 10568 10569 10569 10568 10568 10567 10567 10566 10565 10564 10563 10563 10564 10565 10566 10567 10567 10567 10567 10567 10566 10566 10565 10565 10564 10563 10561 10560 10557 10555 10553 10551 10547 10544 10540 10537 10532 10528 10524 10519 10514 10509 10503 10498 10493 10489 10484 10480 10475 10471 10467 10463 10461 10460 10458 10456 10455 10454 10453 10452 10451 10450 10450 10448 10446 10446 10445 10444 10443 10441 10440
10523 10524 10526 10528 10529 10532 10535 10539 10543 10546 10550 10553 10556 10558 10560 10563 10564 10564 10564 10564 10564 10564 10564 10563 10562 10561 10560 10560 10561 10561 10562 10563 10564 10563 10564 10564 10564 10563 10563 10562 10561 10560 10559 10557 10555 10553 10552 10549 10546 10542 10539 10535 10531 10527 10522 10517 10512 10508 10503 10498 10494 10489 10484 10479 10474 10470 10467 10463 10461 10459 10457 10455 10454 10452 10451 10450 10449 10449 10448 10446 10444 10443 10442 10441 10440 10439 10438
10517 10518 10520 10522 10524 10526 10530 10533 10537 10540 10544 10548 10551 10553 10555 10558 10559 10560 10560 10560 10560 10560 10560 10560 10560 10558 10557 10557 10557 10558 10559 10560 10560 10560 10561 10561 10561 10561 10560 10559 10558 10558 10556 10555 10553 10551 10549 10547 10544 10541 10537 10534 10530 10526 10522 10517 10512 10507 10503 10498 10494 10489 10484 10479 10474 10470 10466 10463 10460 10458 10456 10454 10453 10451 10450 10448 10447 10446 10445 10443 10442 10440 10439 10438 10437 10436 10435
10512 10512 10514 10516 10518 10520 10524 10528 10531 10535 10538 10542 10545 10548 10550 10553 10554 10555 10556 10556 10556 10556 10557 10557 10557 10555 10554 10553 10554 10555 10556 10556 10557 10557 10558 10559 10559 10558 10557 10557 10556 10555 10554 10553 10551 10549 10547 10545 10543 10540 10536 10533 10529 10525 10521 10516 10512 10507 10503 10498 10493 10488 10484 10478 10473 10469 10465 10462 10459 10456 10454 10452 10451 10449 10448 10446 10445 10444 10442 10441 10439 10438 10436 10435 10434 10433 10432
10506 10506 10508 10510 10512 10515 10518 10522 10525 10529 10533 10537 10540 10543 10545 10548 10549 10551 10551 10551 10551 10552 10553 10553 10553 10552 10551 10550 10550 10551 10552 10553 10553 10554 10554 10555 10556 10555 10555 10554 10553 10552 10552 10551 10549 10547 10545 10543 10541 10538 10535 10532 10528 10524 10520 10516 10512 10507 10503 10498 10493 10488 10483 10478 10473 10468 10464 10461 10457 10455 10453 10450 10448 10446 10445 10444 10442 10441 10439 10438 10436 10435 10433 10432 10431 10430 10428
10499 10500 10502 10504 10506 10509 10512 10516 10520 10523 10527 10531 10535 10538 10540 10542 10544 10546 10546 10547 10547 10548 10549 10550 10549 10548 10547 10547 10547 10548 10549 10550 10550 10550 10551 10552 10552 10552 10552 10551 10550 10549 10549 10548 10546 10545 10543 10541 10539 10536 10534 10531 10527 10523 10519 10515 10511 10507 10502 10497 10491 10487 10482 10477 10472 10467 10463 10459 10456 10454 10451 10449 10447 10445 10443 10442 10440 10439 10437 10435 10433 10432 10430 10429 10428 10427 10426
10493 10494 10495 10498 10500 10502 10506 10510 10514 10518 10522 10526 10530 10532 10535 10537 10539 10541 10542 10542 10543 10544 10545 10546 10546 10545 10544 10543 10543 10544 10545 10546 10547 10547 10548 10549 10549 10549 10549 10548 10548 10547 10546 10545 10544 10542 10541 10539 10537 10535 10532 10530 10527 10523 10519 10515 10511 10506 10501 10496 10491 10486 10482 10477 10471 10466 10461 10457 10454 10452 10450 10448 10446 10445 10442 10440 10438 10437 10435 10433 10430 10429 10427 10426 10425 10424 10423
10486 10488 10489 10491 10494 10496 10500 10505 10509 10512 10516 10521 10525 10527 10530 10532 10534 10536 10537 10538 10539 10540 10541 10542 10542 10542 10541 10540 10540 10541 10542 10543 10543 10543 10544 10545 10546 10546 10546 10546 10545 10544 10544 10543 10542 10540 10539 10537 10535 10533 10531 10528 10525 10522 10519 10515 10511 10506 10501 10496 10491 10486 10481 10476 10470 10465 10460 10456 10452 10449 10448 10447 10446 10443 10441 10439 10437 10435 10434 10432 10429 10427 10425 10423 10422 10422 10421
10480 10481 10483 10485 10488 10491 10495 10500 10504 10507 10511 10516 10520 10522 10524 10527 10529 10531 10533 10534 10534 10536 10537 10538 10538 10538 10537 10536 10536 10537 10538 10540 10540 10540 10541 10542 10543 10543 10543 10543 10542 10542 10541 10541 10539 10538 10536 10535 10532 10530 10528 10526 10523 10520 10517 10514 10510 10506 10502 10497 10491 10485 10480 10476 10470 10464 10460 10456 10452 10449 10447 10446 10444 10442 10440 10438 10435 10433 10431 10429 10427 10425 10423 10421 10420 10419 10418
10473 10475 10477 10479 10482 10485 10489 10494 10499 10502 10506 10511 10514 10517 10519 10522 10524 10527 10528 10529 10530 10531 10533 10534 10534 10534 10533 10533 10533 10533 10535 10536 10537 10537 10538 10538 10539 10539 10540 10539 10539 10539 10539 10538 10537 10535 10534 10532 10530 10528 10525 10523 10520 10517 10514 10511 10507 10504 10501 10496 10491 10485 10480 10475 10470 10464 10459 10456 10452 10449 10446 10444 10443 10441 10439 10436 10434 10431 10429 10427 10424 10422 10420 10419 10417 10417 10416
10467 10469 10471 10473 10476 10479 10484 10489 10494 10497 10501 10505 10509 10512 10514 10517 10519 10522 10524 10525 10526 10527 10528 10530 10531 10530 10530 10529 10529 10529 10530 10532 10533 10534 10535 10535 10535 10536 10536 10536 10536 10536 10536 10535 10534 10533 10531 10529 10527 10525 10522 10520 10517 10514 10511 10508 10505 10502 10498 10493 10488 10483 10477 10473 10469 10463 10458 10455 10451 10448 10445 10443 10441 10440 10438 10435 10432 10429 10427 10424 10422 10420 10418 10416 10415 10414 10414
10461 10463 10465 10467 10470 10474 10479 10484 10488 10491 10495 10499 10503 10507 10509 10512 10514 10517 10519 10520 10521 10522 10524 10525 10527 10527 10526 10526 10526 10526 10526 10528 10530 10530 10531 10532 10532 10533 10533 10533 10533 10533 10533 10532 10531 10530 10529 10527 10524 10522 10520 10518 10515 10513 10510 10506 10503 10499 10496 10491 10486 10481 10476 10470 10466 10462 10457 10453 10450 10447 10444 10442 10440 10438 10436 10433 10430 10427 10424 10422 10420 10418 10416 10414 10412 10412 10411
10454 10457 10459 10461 10465 10468 10473 10478 10483 10486 10490 10494 10498 10501 10504 10506 10510 10512 10514 10515 10517 10518 10519 10521 10522 10523 10523 10522 10522 10522 10523 10525 10526 10527 10528 10528 10529 10529 10530 10530 10530 10530 10529 10529 10528 10527 10526 10524 10522 10520 10518 10516 10513 10511 10509 10506 10502 10498 10494 10491 10486 10481 10476 10470 10464 10460 10456 10452 10449 10446 10444 10441 10438 10435 10433 10431 10428 10425 10422 10419 10417 10416 10413 10412 10410 10409 10409
10448 10450 10453 10456 10459 10463 10468 10473 10477 10481 10485 10489 10492 10495 10498 10502 10505 10507 10508 10510 10512 10513 10514 10516 10518 10519 10519 10518 10518 10518 10519 10521 10522 10523 10524 10525 10525 10526 10527 10527 10527 10527 10526 10526 10525 10524 10523 10522 10520 10518 10516 10514 10512 10509 10507 10504 10501 10497 10494 10490 10486 10481 10476 10470 10465 10459 10455 10451 10448 10445 10443 10440 10437 10433 10431 10428 10426 10423 10420 10417 10415 10413 10411 10409 10408 10407 10406
10442 10444 10447 10450 10454 10458 10462 10467 10472 10476 10479 10483 10487 10490 10494 10497 10499 10501 10503 10505 10507 10509 10510 10511 10513 10515 10515 10515 10515 10515 10516 10517 10519 10519 10520 10521 10522 10523 10523 10524 10524 10524 10523 10523 10522 10521 10520 10519 10517 10516 10514 10512 10510 10507 10505 10503 10500 10496 10492 10489 10485 10481 10476 10471 10465 10460 10455 10451 10447 10443 10441 10438 10435 10431 10428 10426 10423 10421 10418 10416 10413 10411 10409 10407 10406 10406 10405
10435 10438 10442 10445 10449 10453 10457 10461 10466 10471 10475 10478 10482 10485 10489 10492 10494 10496 10498 10500 10502 10504 10506 10507 10509 10510 10511 10511 10511 10511 10512 10513 10515 10516 10517 10517 10518 10519 10520 10520 10520 10521 10520 10520 10519 10518 10517 10516 10515 10513 10512 10510 10507 10505 10503 10501 10498 10495 10491 10487 10483 10479 10475 10471 10466 10460 10455 10450 10446 10443 10439 10436 10433 10430 10426 10424 10421 10419 10417 10414 10412 10410 10408 10406 10404 10404 10403
10429 10432 10436 10439 10444 10447 10451 10456 10461 10466 10469 10473 10476 10480 10484 10487 10489 10491 10493 10495 10498 10500 10502 10503 10505 10506 10506 10507 10507 10507 10508 10509 10511 10513 10513 10514 10515 10516 10516 10517 10517 10517 10517 10517 10516 10516 10514 10514 10513 10511 10509 10507 10505 10502 10501 10499 10496 10493 10490 10486 10482 10479 10475 10471 10466 10461 10456 10451 10446 10443 10439 10436 10433 10429 10425 10422 10420 10418 10415 10413 10411 10408 10406 10404 10402 10402 10401
10423 10427 10430 10434 10438 10442 10446 10451 10456 10460 10464 10467 10471 10475 10479 10482 10484 10486 10488 10491 10494 10495 10497 10498 10500 10502 10502 10503 10503 10503 10504 10506 10508 10509 10510 10510 10511 10512 10513 10513 10514 10514 10514 10514 10513 10513 10512 10511 10510 10508 10506 10504 10502 10500 10498 10496 10494 10491 10488 10485 10481 10477 10474 10470 10466 10461 10457 10451 10446 10442 10439 10436 10433 10429 10425 10422 10419 10416 10414 10411 10409 10407 10405 10403 10401 10399 10399
10418 10421 10424 10429 10433 10437 10441 10446 10450 10455 10458 10462 10466 10470 10474 10477 10479 10480 10483 10486 10489 10491 10492 10494 10496 10497 10498 10499 10499 10499 10500 10502 10504 10506 10506 10507 10508 10508 10509 10510 10510 10510 10511 10510 10510 10510 10509 10508 10507 10505 10504 10501 10499 10497 10496 10493 10491 10489 10486 10483 10480 10476 10472 10468 10464 10460 10455 10451 10446 10441 10438 10435 10432 10428 10424 10420 10417 10415 10412 10410 10407 10405 10403 10402 10400 10398 10396
10412 10415 10419 10423 10428 10432 10436 10440 10445 10450 10453 10456 10461 10465 10469 10472 10474 10476 10479 10482 10484 10486 10488 10490 10491 10493 10494 10495 10496 10495 10496 10498 10500 10502 10503 10503 10504 10505 10505 10506 10507 10507 10507 10507 10507 10506 10506 10505 10504 10502 10501 10498 10496 10494 10493 10491 10489 10486 10484 10481 10478 10474 10471 10467 10462 10458 10454 10449 10445 10440 10436 10432 10429 10426 10423 10419 10415 10413 10410 10408 10406 10403 10401 10400 10398 10396 10394
10407 10410 10414 10418 10423 10427 10431 10435 10441 10445 10447 10451 10456 10460 10463 10466 10469 10472 10475 10477 10479 10482 10484 10485 10487 10488 10490 10491 10492 10492 10492 10494 10496 10498 10499 10500 10500 10501 10502 10502 10503 10504 10504 10504 10504 10503 10503 10502 10501 10499 10498 10496 10494 10492 10490 10488 10486 10483 10481 10478 10476 10473 10469 10466 10461 10457 10452 10447 10443 10439 10435 10431 10427 10424 10421 10417 10413 10411 10408 10406 10404 10401 10399 10397 10396 10393 10391
10402 10405 10410 10414 10418 10422 10426 10430 10435 10439 10443 10447 10451 10454 10457 10461 10464 10467 10470 10472 10475 10477 10479 10481 10482 10484 10485 10487 10488 10488 10489 10491 10493 10494 10496 10496 10497 10498 10498 10499 10500 10500 10500 10500 10500 10500 10499 10499 10498 10496 10494 10492 10491 10489 10487 10485 10482 10480 10478 10476 10473 10470 10467 10464 10460 10456 10451 10446 10442 10438 10434 10430 10426 10423 10420 10416 10412 10409 10407 10404 10402 10399 10397 10395 10393 10391 10389
10397 10400 10405 10410 10414 10417 10422 10426 10430 10434 10438 10442 10445 10448 10452 10455 10459 10462 10465 10468 10470 10473 10475 10476 10478 10479 10481 10482 10483 10484 10485 10487 10489 10491 10492 10493 10493 10494 10495 10496 10496 10497 10497 10497 10497 10496 10496 10495 10494 10493 10491 10489 10487 10486 10484 10482 10480 10477 10475 10473 10471 10468 10465 10462 10459 10455 10450 10445 10441 10436 10432 10428 10425 10421 10418 10415 10411 10408 10405 10402 10400 10397 10395 10393 10391 10390 10388
10392 10396 10401 10406 10410 10413 10417 10422 10426 10430 10433 10436 10439 10443 10447 10450 10454 10458 10460 10463 10465 10468 10470 10472 10474 10475 10476 10478 10479 10480 10481 10484 10486 10487 10488 10489 10490 10491 10492 10492 10493 10493 10494 10494 10494 10493 10492 10491 10491 10490 10488 10486 10484 10482 10480 10479 10477 10474 10472 10470 10468 10465 10462 10459 10456 10453 10449 10444 10440 10435 10431 10426 10423 10419 10416 10413 10410 10407 10404 10401 10398 10396 10393 10391 10389 10388 10386
10388 10392 10397 10402 10405 10409 10413 10418 10422 10425 10428 10431 10435 10439 10442 10445 10449 10452 10455 10458 10461 10463 10466 10468 10470 10471 10472 10474 10475 10476 10478 10480 10482 10483 10484 10485 10486 10487 10488 10489 10489 10490 10490 10490 10490 10489 10489 10488 10487 10486 10485 10483 10481 10479 10477 10475 10473 10471 10469 10467 10464 10461 10458 10455 10452 10449 10446 10442 10438 10434 10429 10425 10421 10418 10415 10412 10409 10406 10403 10400 10397 10394 10392 10390 10388 10386 10384
10383 10387 10392 10396 10400 10404 10408 10413 10417 10420 10423 10426 10430 10433 10436 10439 10443 10447 10450 10453 10456 10459 10461 10463 10465 10467 10468 10470 10471 10472 10474 10476 10478 10479 10480 10482 10483 10484 10485 10485 10486 10486 10486 10486 10486 10486 10485 10484 10484 10483 10481 10479 10478 10476 10473 10471 10470 10467 10465 10463 10461 10458 10455 10451 10448 10445 10442 10439 10435 10431 10427 10423 10419 10416 10413 10410 10407 10404 10402 10400 10397 10394 10391 10389 10386 10385 10383
10379 10383 10387 10391 10394 10399 10403 10407 10411 10413 10417 10420 10424 10427 10430 10434 10438 10442 10445 10448 10451 10454 10457 10459 10461 10462 10464 10466 10467 10468 10470 10472 10474 10475 10477 10478 10479 10480 10481 10482 10482 10483 10483 10483 10483 10482 10482 10481 10480 10479 10478 10476 10474 10473 10470 10468 10466 10464 10462 10459 10457 10454 10451 10448 10445 10442 10439 10435 10432 10428 10424 10420 10417 10414 10411 10408 10406 10403 10401 10399 10396 10394 10391 10388 10386 10384 10382
10374 10378 10382 10386 10389 10393 10397 10400 10403 10406 10410 10413 10416 10420 10424 10429 10433 10437 10440 10444 10447 10450 10453 10455 10457 10458 10460 10461 10463 10464 10466 10469 10470 10472 10473 10475 10476 10477 10478 10478 10479 10479 10479 10479 10479 10479 10478 10477 10477 10476 10474 10473 10471 10469 10467 10465 10463 10461 10458 10456 10453 10450 10447 10445 10442 10439 10436 10432 10429 10425 10422 10418 10414 10411 10408 10405 10403 10401 10399 10397 10395 10393 10391 10388 10386 10383 10381
10370 10374 10377 10381 10384 10387 10390 10394 10396 10399 10403 10406 10410 10414 10419 10423 10428 10431 10435 10439 10442 10445 10448 10451 10453 10454 10456 10457 10459 10461 10463 10465 10467 10468 10470 10471 10472 10474 10474 10475 10475 10475 10476 10476 10475 10475 10474 10474 10473 10473 10471 10470 10468 10466 10463 10461 10459 10457 10455 10452 10450 10447 10444 10441 10437 10435 10432 10429 10426 10422 10419 10415 10412 10409 10406 10403 10400 10398 10397 10395 10393 10392 10390 10387 10385 10383 10381
10365 10369 10372 10375 10378 10382 10384 10387 10389 10392 10397 10401 10405 10409 10413 10418 10422 10427 10431 10435 10438 10441 10443 10446 10448 10450 10451 10453 10455 10457 10459 10461 10463 10465 10467 10468 10469 10470 10471 10472 10472 10472 10472 10472 10471 10471 10470 10470 10470 10469 10468 10467 10465 10463 10460 10457 10455 10453 10451 10449 10446 10443 10440 10437 10434 10431 10428 10425 10423 10419 10416 10412 10409 10406 10404 10401 10398 10396 10394 10392 10390 10389 10387 10386 10384 10382 10380
10361 10364 10367 10370 10373 10375 10375 10378 10382 10387 10392 10395 10399 10403 10408 10414 10419 10423 10426 10430 10433 10436 10439 10442 10444 10446 10447 10449 10451 10453 10455 10457 10460 10462 10463 10464 10466 10467 10468 10468 10468 10468 10468 10467 10467 10467 10466 10465 10466 10466 10465 10463 10462 10460 10457 10454 10452 10449 10448 10446 10443 10440 10437 10434 10431 10427 10424 10422 10419 10417 10413 10410 10406 10403 10400 10398 10395 10392 10390 10388 10387 10386 10384 10383 10382 10380 10378
10356 10358 10361 10363 10365 10365 10366 10370 10377 10382 10386 10389 10394 10399 10404 10409 10414 10418 10422 10425 10429 10432 10435 10437 10440 10441 10443 10445 10447 10449 10451 10454 10456 10458 10459 10461 10463 10464 10464 10465 10465 10465 10464 10463 10463 10462 10461 10461 10461 10462 10461 10459 10458 10456 10454 10451 10448 10446 10444 10442 10439 10436 10434 10431 10428 10424 10421 10418 10415 10413 10410 10407 10404 10400 10397 10394 10391 10389 10386 10384 10383 10381 10380 10379 10378 10377 10375
10347 10349 10351 10353 10354 10355 10359 10365 10371 10375 10379 10384 10389 10395 10400 10404 10409 10413 10417 10421 10424 10427 10430 10432 10435 10437 10439 10441 10443 10445 10447 10450 10452 10454 10456 10458 10459 10460 10461 10461 10461 10461 10460 10459 10458 10458 10457 10457 10457 10457 10456 10455 10453 10452 10450 10448 10445 10442 10440 10438 10436 10433 10430 10428 10425 10421 10417 10414 10411 10409 10406 10403 10399 10396 10393 10390 10387 10385 10382 10380 10378 10377 10376 10375 10374 10372 10371
10340 10342 10344 10347 10350 10353 10357 10362 10366 10370 10374 10379 10384 10390 10395 10400 10404 10408 10412 10415 10418 10422 10425 10428 10430 10432 10434 10437 10439 10441 10443 10446 10448 10450 10453 10454 10455 10456 10457 10457 10457 10457 10456 10455 10454 10454 10453 10453 10454 10453 10452 10450 10448 10447 10445 10443 10441 10438 10436 10434 10431 10429 10426 10423 10421 10418 10415 10411 10407 10404 10401 10397 10394 10391 10388 10385 10382 10379 10377 10375 10374 10372 10371 10370 10369 10368 10366
10337 10339 10342 10346 10350 10353 10356 10359 10362 10366 10370 10376 10381 10386 10390 10395 10399 10402 10406 10409 10413 10416 10419 10422 10425 10428 10430 10433 10435 10437 10440 10442 10444 10447 10449 10450 10452 10452 10453 10453 10453 10453 10452 10451 10450 10449 10449 10449 10450 10449 10448 10445 10443 10442 10440 10438 10436 10434 10432 10429 10427 10424 10421 10418 10416 10414 10411 10408 10404 10401 10397 10393 10389 10385 10382 10380 10377 10375 10372 10370 10368 10367 10365 10365 10364 10363 10362
10334 10336 10339 10343 10346 10348 10351 10355 10360 10364 10369 10373 10376 10380 10385 10389 10392 10395 10399 10403 10407 10411 10415 10418 10421 10424 10426 10429 10432 10434 10437 10439 10441 10443 10445 10447 10448 10449 10449 10449 10449 10449 10448 10447 10446 10445 10445 10445 10445 10444 10442 10440 10439 10438 10436 10433 10431 10429 10426 10424 10422 10419 10416 10413 10410 10408 10406 10403 10400 10397 10393 10389 10385 10381 10377 10374 10371 10369 10367 10365 10363 10361 10360 10359 10358 10358 10357
10330 10333 10336 10339 10342 10345 10349 10352 10357 10361 10364 10366 10369 10372 10376 10379 10383 10388 10394 10399 10404 10408 10411 10414 10416 10419 10423 10426 10429 10431 10433 10435 10437 10440 10442 10443 10444 10445 10445 10445 10445 10444 10443 10442 10442 10441 10441 10441 10440 10438 10437 10435 10434 10433 10431 10429 10426 10424 10421 10419 10416 10413 10410 10407 10404 10401 10399 10396 10394 10391 10388 10385 10381 10377 10373 10369 10366 10363 10362 10360 10358 10356 10354 10353 10352 10352 10351
10327 10329 10332 10335 10338 10341 10345 10348 10350 10353 10355 10357 10360 10363 10366 10371 10378 10386 10392 10397 10401 10404 10406 10409 10412 10416 10420 10423 10425 10427 10430 10432 10434 10436 10438 10439 10440 10441 10441 10441 10441 10440 10439 10438 10438 10437 10437 10435 10434 10433 10431 10430 10429 10428 10426 10424 10422 10419 10417 10414 10411 10408 10405 10401 10397 10394 10392 10389 10386 10383 10381 10378 10376 10373 10369 10364 10361 10357 10355 10354 10353 10351 10349 10348 10347 10346 10345
10323 10326 10329 10332 10335 10338 10340 10341 10342 10344 10347 10350 10353 10357 10363 10370 10378 10384 10389 10392 10395 10399 10402 10406 10410 10414 10417 10419 10422 10424 10427 10429 10431 10433 10434 10436 10437 10437 10437 10437 10436 10435 10434 10434 10434 10433 10432 10431 10429 10428 10426 10425 10424 10423 10421 10419 10417 10415 10412 10409 10406 10403 10399 10395 10391 10388 10385 10382 10378 10375 10372 10369 10368 10366 10363 10360 10356 10352 10349 10348 10347 10346 10344 10343 10342 10341 10340
10321 10324 10327 10329 10331 10333 10334 10336 10338 10341 10344 10348 10353 10359 10364 10370 10375 10379 10384 10388 10392 10396 10400 10404 10408 10411 10414 10416 10419 10422 10424 10426 10428 10429 10431 10432 10433 10433 10433 10432 10431 10430 10430 10430 10429 10429 10428 10426 10425 10423 10421 10420 10419 10418 10416 10414 10412 10410 10407 10404 10401 10398 10395 10390 10386 10382 10379 10375 10371 10367 10364 10361 10360 10358 10356 10354 10351 10348 10345 10342 10340 10340 10339 10338 10337 10337 10335
10319 10322 10324 10325 10327 10329 10332 10335 10339 10343 10347 10351 10356 10360 10364 10368 10372 10377 10382 10386 10390 10395 10399 10403 10406 10408 10411 10414 10417 10419 10421 10422 10424 10426 10427 10428 10429 10428 10428 10427 10426 10426 10425 10425 10424 10424 10423 10422 10420 10419 10417 10415 10414 10412 10410 10409 10407 10405 10402 10399 10396 10393 10390 10386 10382 10377 10374 10370 10366 10362 10359 10356 10354 10351 10349 10346 10344 10343 10341 10338 10335 10334 10333 10332 10332 10332 10331
10318 10320 10322 10324 10328 10331 10335 10338 10342 10345 10349 10353 10356 10360 10364 10368 10373 10377 10381 10386 10390 10394 10397 10400 10403 10406 10409 10412 10414 10416 10417 10419 10421 10422 10423 10424 10424 10424 10422 10422 10421 10421 10420 10419 10419 10419 10418 10417 10416 10414 10413 10411 10409 10407 10405 10403 10401 10399 10396 10393 10390 10387 10383 10380 10376 10372 10369 10366 10362 10358 10355 10352 10349 10346 10343 10340 10338 10336 10335 10333 10331 10329 10327 10326 10325 10325 10325
10318 10320 10323 10326 10330 10333 10336 10339 10343 10346 10349 10353 10357 10361 10365 10370 10374 10378 10382 10386 10390 10393 10395 10398 10401 10404 10407 10410 10411 10412 10414 10416 10417 10418 10419 10420 10420 10418 10417 10416 10416 10416 10415 10415 10414 10413 10413 10412 10411 10410 10409 10407 10404 10402 10400 10397 10395 10393 10390 10388 10385 10382 10379 10376 10372 10368 10364 10361 10358 10353 10350 10347 10344 10341 10338 10335 10333 10331 10329 10328 10326 10325 10323 10320 10319 10318 10318
10318 10321 10325 10329 10332 10335 10338 10342 10345 10349 10352 10356 10360 10364 10368 10371 10375 10379 10382 10385 10388 10391 10393 10396 10399 10402 10405 10406 10407 10408 10410 10412 10413 10413 10415 10415 10414 10413 10412 10410 10410 10411 10411 10410 10409 10408 10408 10407 10406 10405 10403 10402 10400 10398 10395 10393 10391 10388 10386 10383 10381 10378 10376 10373 10369 10365 10360 10356 10352 10348 10343 10340 10338 10335 10332 10330 10328 10325 10323 10322 10321 10319 10318 10316 10314 10312 10312